TimePDT,TemperatureF,Dew PointF,Humidity,Sea Level PressureIn,VisibilityMPH,Wind Direction,Wind SpeedMPH,Gust SpeedMPH,PrecipitationIn,Events,Conditions,WindDirDegrees,DateUTC
12:54 AM,54.0,48.0,80,30.01,10.0,SSW,10.4,-,N/A,,Clear,210,2013-03-31 07:54:00
1:54 AM,52.0,46.9,83,30.01,10.0,South,9.2,-,N/A,,Clear,170,2013-03-31 08:54:00
2:54 AM,51.1,46.9,86,30.01,10.0,South,6.9,-,N/A,,Clear,170,2013-03-31 09:54:00
3:54 AM,50.0,46.0,86,30.00,10.0,South,5.8,-,N/A,,Clear,170,2013-03-31 10:54:00
4:54 AM,46.9,44.1,90,30.01,10.0,SSW,5.8,-,N/A,,Clear,200,2013-03-31 11:54:00
5:54 AM,48.0,45.0,89,30.00,10.0,SSE,8.1,-,N/A,,Scattered Clouds,160,2013-03-31 12:54:00
6:54 AM,48.0,46.0,93,30.00,10.0,South,5.8,-,N/A,,Mostly Cloudy,170,2013-03-31 13:54:00
7:54 AM,50.0,48.0,93,30.00,10.0,SSW,4.6,-,N/A,,Mostly Cloudy,200,2013-03-31 14:54:00
8:54 AM,55.0,50.0,83,30.00,10.0,SSW,4.6,-,N/A,,Mostly Cloudy,200,2013-03-31 15:54:00
9:54 AM,59.0,52.0,78,29.99,10.0,SSE,6.9,-,N/A,,Scattered Clouds,160,2013-03-31 16:54:00
10:54 AM,62.1,52.0,70,30.00,10.0,SSW,3.5,-,N/A,,Scattered Clouds,210,2013-03-31 17:54:00
11:54 AM,66.0,52.0,60,29.99,10.0,SW,6.9,-,N/A,,Scattered Clouds,220,2013-03-31 18:54:00
12:54 PM,68.0,52.0,56,29.98,10.0,SW,8.1,-,N/A,,Scattered Clouds,220,2013-03-31 19:54:00
1:54 PM,69.1,51.1,53,29.97,10.0,SW,12.7,-,N/A,,Mostly Cloudy,230,2013-03-31 20:54:00
2:54 PM,72.0,50.0,46,29.96,10.0,West,12.7,-,N/A,,Mostly Cloudy,270,2013-03-31 21:54:00
3:54 PM,70.0,48.9,47,29.96,10.0,West,15.0,-,N/A,,Mostly Cloudy,260,2013-03-31 22:54:00
4:54 PM,66.2,50.0,56,29.97,10.0,West,15.0,-,N/A,,Mostly Cloudy,260,2013-03-31 23:54:00
5:54 PM,62.6,50.0,63,29.98,10.0,West,17.3,-,N/A,,Mostly Cloudy,270,2013-04-01 00:54:00
6:54 PM,59.0,50.0,72,30.00,10.0,West,16.1,-,N/A,,Mostly Cloudy,270,2013-04-01 01:54:00
7:54 PM,57.0,50.0,77,30.01,10.0,West,9.2,-,N/A,,Mostly Cloudy,270,2013-04-01 02:54:00
8:36 PM,55.4,50.0,82,30.03,10.0,West,9.2,-,N/A,,Mostly Cloudy,260,2013-04-01 03:36:00
8:54 PM,55.9,50.0,80,30.03,10.0,West,5.8,-,N/A,,Overcast,280,2013-04-01 03:54:00
9:54 PM,55.0,48.9,80,30.04,10.0,WSW,10.4,-,N/A,,Overcast,240,2013-04-01 04:54:00
10:54 PM,55.4,48.2,77,30.05,10.0,WSW,6.9,-,N/A,,Overcast,240,2013-04-01 05:54:00
11:22 PM,55.4,48.2,77,30.05,10.0,SW,8.1,-,N/A,,Overcast,230,2013-04-01 06:22:00
11:54 PM,53.6,50.0,88,30.04,10.0,WSW,9.2,-,N/A,,Overcast,240,2013-04-01 06:54:00